STARLINK-11529, 62599

Orbit data source: Space-Track

STARLINK-11529, 62599 is a payload satellite owned by SpaceX/Seattle (US) in LEO that was launched on Mon, 13 Jan 2025 UTC via an FALCON 9 launch vehicle from the Air Force Eastern Test Range (AFETR). Payload-class satellites include a variety of spacecraft equipped with specific instruments for various scientific and technological missions. These include communications satellites like Starlink; space stations such as the ISS; scientific satellites like the Hubble; Earth observation satellites from companies like Planet Labs, Umbra, and HawkEye 360; GPS; miniature CubeSats for education and research; and military/defense satellites.

Loading next visibility...
Identifier
62599, 2025-008N
Orbit
LEO
Country
Flag of USUS
Related business
Manufacturer
SpaceX/Seattle
Mission
Operational Commercial Communications
Bus & Motor
STARLINK V2MD, Unknown motor
Mass
960 kg wet, ~910 kg dry
Launch date (UTC)
2025-01-13 (9 months ago)
Launch vehicle
FALCON 9
Launch site
Air Force Eastern Test Range (AFETR)
Object type
Payload
Rocket body
Debris
Shape & HBR
Box + 2 Pan, 18.1 m
Radar Cross Section
36.964 m², Large (>1 m²)

Expand to show TLE details & history
Last TLE update: 14 hours ago

TLE from 14 hours ago
0 STARLINK-11529
1 62599U 25008N   25296.15446186  .00288812  00000-0  21525-2 0  9991
2 62599  42.9987 235.1653 0002393 296.1918  63.8703 15.71109090 45661
Epoch: 2025-10-23T03:42Z
TLE epoch observation values (Epoch: 2025-10-23T03:42:25.504Z)
Latitude
-0.00006°
Longitude
147.74118°
Altitude
354.788 km
Speed
7.699 km/s
True Right ascension
15h 40m 39s
True Declination
0° 00' 00"
Sunlit
Object was in daylight at epoch
Visualization orbit readout
Latitude
Unknown
Longitude
Unknown
Altitude
Unknown
Speed
Unknown
Apparent Right ascension
Unknown
Apparent Declination
Unknown
Sunlit
N/A
Visualization observer readout
Local Sidereal Time
13:20:38
Azimuth
Unknown
Elevation
Unknown
Doppler factor
Unknown
Orbital elements
Apogee altitude
359.32 km
Perigee altitude
356.096 km
Semi-major axis
6,735.845 km
Eccentricity
0.00024
Inclination
42.9987°
RAAN
235.1653°
Arg. of periapsis
296.1918°
True anomaly
63.89492°
Mean anomaly
63.8703°
Eccentric anomaly
63.88261°
Mean motion
3.92604 °/min
Orbital period
91.7 mins
BSTAR
0.0021525
Loading maneuver chart data...
Computing Atmospheric mass density...
Loading historical data...
Loading historical data...
Loading historical data...
Loading historical data...
Loading historical data...
Loading historical data...
Loading historical data...

Documentation

Showing up to 5 results
|